Weather History for KCRP - August, 2013

Change the Weather History Date:

Friday, August 16, 2013

  Actual Average Record
Temperature  
Mean Temperature 89 °F 85 °F  
Max Temperature 99 °F 95 °F 100 °F (1948)
Min Temperature 79 °F 75 °F 70 °F (1967)
Degree Days  
Heating Degree Days 0 0  
Month to date heating degree days 0 0  
Since 1 June heating degree days 0 0  
Since 1 July heating degree days 0 0  
Cooling Degree Days 24 20  
Month to date cooling degree days 372 320  
Year to date cooling degree days 2705 2270  
Since 1 June cooling degree days 1687 1429  
Growing Degree Days 39 (Base 50)    
Moisture  
Dew Point 74 °F    
Average Humidity 64    
Maximum Humidity 85    
Minimum Humidity 42    
Precipitation  
Precipitation 0.24 in 0.10 in 0.98 in (1987)
Month to date precipitation 0.33 1.09  
Year to date precipitation 10.13 17.51  
Snow  
Snow 0.00 in - - ()
Month to date snowfall 0.0  
Since 1 June snowfall 0.0  
Since 1 July snowfall 0.0  
Snow Depth 0.00 in    
Sea Level Pressure  
Sea Level Pressure 29.94 in    
Wind  
Wind Speed 7 mph (SE)    
Max Wind Speed 23 mph    
Max Gust Speed 28 mph    
Visibility 10 miles    
Events Rain , Thunderstorm    
T = Trace of Precipitation, MM = Missing Value Source: NWS Daily Summary

Daily Weather History Graph

Daily Weather History Graph

Search for Another Location

Airport or City:

Trip Planner

Search our weather history database for the weather conditions in past years. The results will help you decide how hot, cold, wet, or windy it might be!

Date:

Astronomy

Aug. 16, 2013 Rise Set
Actual Time 7:01 AM CDT 8:06 PM CDT
Civil Twilight 6:36 AM CDT 8:31 PM CDT
Nautical Twilight 6:07 AM CDT 9:00 PM CDT
Astronomical Twilight 5:37 AM CDT 9:30 PM CDT
Moon 4:17 PM CDT (8/16) 2:14 AM CDT (8/16)
Length of Visible Light 13h 54m
Length of Day
13h 05m
Waxing Gibbous, 75% of the Moon is Illuminated
Aug 16
Waxing Gibbous
Aug 20
Full
Aug 28
Last Quarter
Sep 5
New
Sep 12
First Quarter

Hourly Weather History & Observations

Time (CDT) Temp. Heat Index Dew Point Humidity Pressure Visibility Wind Dir Wind Speed Gust Speed Precip Events Conditions
12:51 AM 82.9 °F 90.2 °F 75.0 °F 77% 29.97 in 10.0 mi SE 4.6 mph - N/A   Partly Cloudy
1:51 AM 81.0 °F 86.2 °F 73.9 °F 79% 29.95 in 10.0 mi SE 3.5 mph - N/A   Partly Cloudy
2:51 AM 80.1 °F 84.5 °F 73.9 °F 81% 29.94 in 10.0 mi SE 3.5 mph - N/A   Partly Cloudy
3:51 AM 81.0 °F 87.3 °F 75.9 °F 85% 29.93 in 10.0 mi SSE 6.9 mph - N/A   Partly Cloudy
4:51 AM 82.0 °F 89.4 °F 75.9 °F 82% 29.93 in 10.0 mi Calm Calm - N/A   Scattered Clouds
5:51 AM 81.0 °F 86.7 °F 75.0 °F 82% 29.93 in 10.0 mi Calm Calm - N/A   Mostly Cloudy
6:51 AM 80.1 °F 85.1 °F 75.0 °F 85% 29.93 in 10.0 mi South 3.5 mph - N/A   Scattered Clouds
7:51 AM 82.0 °F 88.6 °F 75.0 °F 79% 29.95 in 10.0 mi Calm Calm - N/A   Mostly Cloudy
8:51 AM 84.0 °F 93.7 °F 77.0 °F 79% 29.97 in 10.0 mi Calm Calm - N/A   Scattered Clouds
9:51 AM 87.1 °F 95.4 °F 73.9 °F 65% 29.97 in 10.0 mi SSW 3.5 mph - N/A   Scattered Clouds
10:51 AM 90.0 °F 96.9 °F 72.0 °F 55% 29.98 in 10.0 mi Calm Calm - N/A   Scattered Clouds
11:51 AM 93.9 °F 100.3 °F 70.0 °F 46% 29.97 in 10.0 mi Calm Calm - N/A   Scattered Clouds
12:51 PM 95.0 °F 102.5 °F 71.1 °F 46% 29.95 in 10.0 mi Calm Calm - N/A   Scattered Clouds
1:51 PM 97.0 °F 102.8 °F 69.1 °F 40% 29.94 in 10.0 mi Variable 6.9 mph - N/A   Scattered Clouds
2:51 PM 98.1 °F 106.5 °F 71.1 °F 42% 29.92 in 10.0 mi ENE 11.5 mph 17.3 mph N/A   Scattered Clouds
3:51 PM 98.1 °F 106.5 °F 71.1 °F 42% 29.90 in 10.0 mi East 13.8 mph 19.6 mph N/A   Scattered Clouds
4:51 PM 97.0 °F 104.8 °F 71.1 °F 43% 29.88 in 10.0 mi ESE 11.5 mph 19.6 mph N/A   Partly Cloudy
5:51 PM 95.0 °F 103.2 °F 72.0 °F 47% 29.88 in 10.0 mi SE 13.8 mph 19.6 mph N/A   Partly Cloudy
6:51 PM 91.9 °F 100.7 °F 73.0 °F 54% 29.88 in 10.0 mi SSE 16.1 mph 20.7 mph N/A   Partly Cloudy
7:51 PM 89.1 °F 96.0 °F 72.0 °F 57% 29.88 in 10.0 mi SSE 13.8 mph - N/A   Partly Cloudy
8:51 PM 86.0 °F 96.0 °F 75.9 °F 72% 29.90 in 10.0 mi SSE 9.2 mph - N/A   Partly Cloudy
9:51 PM 84.9 °F 94.1 °F 75.9 °F 74% 29.94 in 10.0 mi SE 11.5 mph - N/A   Mostly Cloudy
10:51 PM 84.9 °F 94.1 °F 75.9 °F 74% 29.96 in 10.0 mi SE 11.5 mph - N/A   Mostly Cloudy
11:47 PM 80.6 °F 85.4 °F 73.4 °F 79% 30.00 in 5.0 mi East 17.3 mph 27.6 mph 0.01 in Rain , Thunderstorm Thunderstorms and Rain
11:51 PM 80.1 °F 84.5 °F 73.9 °F 81% 30.00 in 8.0 mi ESE 13.8 mph 26.5 mph 0.12 in Rain , Thunderstorm Light Thunderstorms and Rain